Weather observations for the past three days for
Dillon, Dillon Airport
Imperial (Metric)
Date Time (mdt) Wind (mph) Vis. (mi.) Weather Sky Cond. Temperature (ºF) Relative Humidity Wind Chill (°F) Heat Index (°F) Pressure Precipitation (in)
Air Dwpt 6 hour altimeter (in) sea level (mb) 1 hr 3 hr 6 hr
Max. Min.
05 16:53 NE 24 G 37 10.00 Fair and Breezy CLR 51.1 21 31% 29.93 1013.1
05 15:53 NE 21 G 32 10.00 Overcast and Breezy OVC075 53.1 19.9 27% 29.93 1012.7
05 14:53 NE 20 G 31 10.00 Mostly Cloudy BKN075 53.1 19 26% 29.93 1012.2
05 13:53 NE 16 G 31 10.00 Partly Cloudy SCT080 54 19 25% 29.94 1012.4
05 12:53 NE 13 G 22 10.00 Fair CLR 53.1 19 26% 29.94 1012.3
05 11:53 NE 15 G 24 10.00 Fair CLR 50 19 51.1 27 29% 45 29.96 1013.0
05 10:53 NE 10 10.00 Fair CLR 48 21 34% 44 29.97 1013.2
05 09:53 NE 18 G 23 10.00 Fair CLR 44.1 21.9 41% 37 29.98 1014.0
05 08:53 Vrbl 3 10.00 Fair CLR 41 21.9 47% 29.99 1014.3
05 07:53 SE 3 10.00 Fair CLR 37 23 57% 29.99 1014.6
05 06:53 Calm 10.00 Fair CLR 32 23 69% 29.98 1014.5
05 05:53 SE 6 10.00 Fair CLR 28 21 42.1 28 75% 22 29.97 1014.0
05 04:53 SE 6 10.00 Fair CLR 28 21 75% 22 29.98 1013.8
05 03:53 E 8 10.00 Fair CLR 30 23 75% 23 29.98 1013.7
05 02:53 E 6 10.00 Mostly Cloudy BKN060 36 24.1 62% 32 29.99 1013.3
05 01:53 NE 9 10.00 A Few Clouds FEW060 35.1 24.1 64% 29 29.99 1013.6
05 00:53 NE 10 10.00 Fair CLR 39 25 57% 33 29.98 1012.9
04 23:53 NE 17 G 25 10.00 Partly Cloudy SCT090 42.1 27 57 42.1 55% 34 29.97 1012.6
04 22:53 NE 23 G 32 10.00 Overcast and Breezy OVC065 45 28 52% 37 29.96 1012.1
04 21:53 NE 25 G 35 10.00 Mostly Cloudy and Breezy SCT060 BKN095 46 28 50% 38 29.94 1011.5
04 20:53 NE 21 10.00 Fair and Breezy CLR 48 26.1 42% 41 29.91 1010.7
04 19:53 NE 25 G 36 10.00 Fair and Breezy CLR 48.9 27 43% 42 29.89 1010.1
04 18:53 NE 31 G 41 10.00 A Few Clouds and Windy FEW120 52 27 38% 29.87 1009.7
04 17:53 NE 31 G 38 10.00 Fair and Windy CLR 57 28 64.9 57 33% 29.85 1008.3
04 16:53 NE 26 G 35 10.00 Fair and Windy CLR 62.1 28.9 29% 29.84 1007.2
04 15:53 NE 18 G 28 10.00 Fair CLR 64 30 28% 29.84 1007.3
04 14:53 N 16 G 24 10.00 A Few Clouds FEW100 64 30 28% 29.86 1007.7
04 13:53 NE 9 10.00 Fair CLR 61 28.9 30% 29.88 1008.4
04 12:53 NE 12 G 24 10.00 Fair CLR 60.1 28 30% 29.9 1008.9
04 11:53 NE 17 G 26 10.00 Fair CLR 57 28 57 39 33% 29.92 1009.8
04 10:53 NE 23 G 30 10.00 Fair and Breezy CLR 54 28 37% 29.92 1010.4
04 09:53 NE 16 G 26 10.00 Fair CLR 53.1 28 38% 29.93 1010.8
04 08:53 N 9 10.00 Fair CLR 48 28 46% 44 29.94 1010.8
04 07:53 NE 21 10.00 Fair and Breezy CLR 45 26.1 48% 37 29.93 1010.3
04 06:53 NE 10 10.00 Fair CLR 41 28 60% 35 29.92 1009.7
04 05:53 NE 6 10.00 Fair CLR 42.1 27 51.1 39 55% 39 29.91 1009.1
04 04:53 SW 12 10.00 Fair CLR 43 25 49% 37 29.88 1007.9
04 03:53 S 12 10.00 Fair CLR 43 25 49% 37 29.87 1007.9
04 02:53 S 7 10.00 Fair CLR 46 24.1 42% 43 29.88 1007.8
04 00:53 S 7 10.00 Fair CLR 48.9 23 36% 46 29.88 1007.8
03 23:53 S 7 10.00 Fair CLR 51.1 24.1 70 45 35% 29.88 1007.9
03 22:53 S 3 10.00 Fair CLR 48.9 23 36% 29.88 1008.2
03 21:53 SE 5 10.00 Fair CLR 50 21.9 33% 49 29.86 1008.1
03 20:53 NW 6 10.00 Fair CLR 59 23 25% 29.85 1007.3
03 19:53 NW 8 10.00 Fair CLR 64.9 24.1 21% 29.84 1007.1
03 18:53 NW 6 10.00 Fair CLR 70 21 16% 29.85 1007.5
03 17:53 N 9 10.00 A Few Clouds FEW120 69.1 21 72 64 16% 29.86 1008.0
03 16:53 Vrbl 5 10.00 Fair CLR 71.1 21.9 16% 29.88 1008.0
03 15:53 Vrbl 3 10.00 Fair CLR 70 24.1 18% 29.9 1008.9
03 14:53 Calm 10.00 Fair CLR 69.1 25 19% 29.93 1009.8
03 13:53 Vrbl 6 10.00 A Few Clouds FEW100 69.1 26.1 20% 29.95 1010.1
03 12:53 Vrbl 7 10.00 Fair CLR 68 26.1 21% 29.97 1011.6
03 11:53 Calm 10.00 Fair CLR 64 27 64.9 36 25% 30 1011.9
03 10:53 Vrbl 3 10.00 Fair CLR 60.1 27 28% 30.02 1013.0
03 09:53 SW 9 10.00 Fair CLR 55.9 26.1 32% 30.03 1013.6
03 08:53 SW 8 10.00 Fair CLR 48.9 26.1 41% 46 30.05 1014.7
03 07:53 SW 8 10.00 Fair CLR 42.1 26.1 53% 38 30.05 1014.8
03 06:53 S 13 10.00 Fair CLR 37 24.1 59% 30 30.04 1014.8
03 05:53 S 13 10.00 Fair CLR 36 24.1 51.1 34 62% 28 30.05 1014.5
03 04:53 SW 7 10.00 Fair CLR 39.9 25 55% 36 30.05 1014.1
03 03:53 S 6 10.00 Fair CLR 41 25 53% 38 30.05 1013.9
03 02:53 S 8 10.00 Fair CLR 42.1 21.9 45% 38 30.04 1013.6
03 01:53 S 9 10.00 Fair CLR 48 27 44% 44 30.04 1013.4
03 00:53 SW 8 10.00 Fair CLR 39.9 24.1 53% 35 30.04 1014.2
02 23:53 SE 3 10.00 Fair CLR 51.1 26.1 70 48 38% 30.03 1013.3
02 22:53 E 9 10.00 Fair CLR 51.1 25 36% 30.02 1013.2
02 21:53 E 8 10.00 Fair CLR 53.1 25 34% 30.01 1013.4
02 20:53 E 8 10.00 Fair CLR 55 14 20% 29.99 1012.9
02 19:53 W 7 10.00 Fair CLR 63 19 18% 29.98 1012.3
02 18:53 NW 7 10.00 Fair CLR 64.9 18 16% 29.98 1012.4
02 17:53 NW 13 10.00 Fair CLR 69.1 12 73 64.9 11% 29.98 1012.3
Date Time (mdt) Wind (mph) Vis. (mi.) Weather Sky Cond. Air Dwpt Max. Min. Relative Humidity Wind Chill (°F) Heat Index (°F) altimeter (in) sea level (mb) 1 hr 3 hr 6 hr
6 hour
Temperature (ºF) Pressure Precipitation (in)